H1 CPF 1 NER 2018 5 27 9 6471 glonass118 H2 0907003 9118 36113 2018 5 27 0 0 0 2018 5 30 23 45 0 900 1 1 0 0 0 H9 10 0 58265 0.00000 0 11291471.450 968319.459 22850563.001 10 0 58265 900.00000 0 10540633.893 3690706.795 22932433.663 10 0 58265 1800.00000 0 9989961.853 6442740.700 22568923.071 10 0 58265 2700.00000 0 9647206.305 9155932.952 21767127.642 10 0 58265 3600.00000 0 9507988.051 11762168.750 20542648.401 10 0 58265 4500.00000 0 9556085.519 14196311.457 18919286.711 10 0 58265 5400.00000 0 9764236.276 16398690.717 16928581.793 10 0 58265 6300.00000 0 10095418.155 18317371.268 14609198.723 10 0 58265 7200.00000 0 10504555.611 19910108.734 12006178.572 10 0 58265 8100.00000 0 10940579.064 21145911.746 9170064.917 10 0 58265 9000.00000 0 11348750.086 22006145.967 6155923.370 10 0 58265 9900.00000 0 11673154.061 22485134.610 3022273.109 10 0 58265 10800.00000 0 11859254.755 22590231.122 -170048.958 10 0 58265 11700.00000 0 11856402.540 22341361.710 -3359069.261 10 0 58265 12600.00000 0 11620189.899 21770057.634 -6482880.705 10 0 58265 13500.00000 0 11114554.178 20918018.538 -9480844.332 10 0 58265 14400.00000 0 10313538.188 19835267.800 -12294766.013 10 0 58265 15300.00000 0 9202633.641 18577977.868 -14870025.113 10 0 58265 16200.00000 0 7779649.950 17206057.302 -17156633.237 10 0 58265 17100.00000 0 6055070.788 15780601.050 -19110202.673 10 0 58265 18000.00000 0 4051882.352 14361311.045 -20692805.895 10 0 58265 18900.00000 0 1804879.227 13003995.172 -21873709.841 10 0 58265 19800.00000 0 -640524.460 11758249.212 -22629971.143 10 0 58265 20700.00000 0 -3229930.294 10665418.522 -22946881.063 10 0 58265 21600.00000 0 -5901970.461 9756924.399 -22818251.821 10 0 58265 22500.00000 0 -8590619.778 9053024.728 -22246538.870 10 0 58265 23400.00000 0 -11227709.779 8562060.459 -21242796.646 10 0 58265 24300.00000 0 -13745541.483 8280219.064 -19826468.393 10 0 58265 25200.00000 0 -16079489.071 8191824.583 -18025013.634 10 0 58265 26100.00000 0 -18170486.799 8270141.838 -15873379.972 10 0 58265 27000.00000 0 -19967296.087 8478660.781 -13413328.805 10 0 58265 27900.00000 0 -21428458.664 8772806.663 -10692627.448 10 0 58265 28800.00000 0 -22523854.335 9102003.698 -7764122.927 10 0 58265 29700.00000 0 -23235798.430 9412004.723 -4684715.177 10 0 58265 30600.00000 0 -23559633.161 9647387.928 -1514249.530 10 0 58265 31500.00000 0 -23503788.233 9754114.439 1685649.609 10 0 58265 32400.00000 0 -23089308.562 9682037.758 4852780.870 10 0 58265 33300.00000 0 -22348869.377 9387257.934 7925579.783 10 0 58265 34200.00000 0 -21325320.715 8834219.916 10844320.077 10 0 58265 35100.00000 0 -20069823.204 7997466.314 13552278.450 10 0 58265 36000.00000 0 -18639654.244 6862969.465 15996839.652 10 0 58265 36900.00000 0 -17095777.476 5428985.629 18130520.025 10 0 58265 37800.00000 0 -15500278.206 3706394.332 19911889.550 10 0 58265 38700.00000 0 -13913772.775 1718507.582 21306374.656 10 0 58265 39600.00000 0 -12392900.690 -499643.910 22286926.510 10 0 58265 40500.00000 0 -10988004.441 -2902518.565 22834542.305 10 0 58265 41400.00000 0 -9741093.768 -5435716.292 22938630.031 10 0 58265 42300.00000 0 -8684178.967 -8038007.229 22597210.104 10 0 58265 43200.00000 0 -7838042.144 -10643653.258 21816950.448 10 0 58265 44100.00000 0 -7211496.878 -13184926.511 20613034.567 10 0 58265 45000.00000 0 -6801166.322 -15594720.821 19008865.339 10 0 58265 45900.00000 0 -6591788.006 -17809148.278 17035610.167 10 0 58265 46800.00000 0 -6557031.597 -19770013.531 14731596.145 10 0 58265 47700.00000 0 -6660794.453 -21427063.425 12141566.690 10 0 58265 48600.00000 0 -6858919.674 -22739918.783 9315813.804 10 0 58265 49500.00000 0 -7101263.689 -23679608.337 6309202.471 10 0 58265 50400.00000 0 -7334025.609 -24229641.147 3180106.072 10 0 58265 51300.00000 0 -7502239.545 -24386573.222 -10726.614 10 0 58265 52200.00000 0 -7552324.098 -24160045.091 -3201350.770 10 0 58265 53100.00000 0 -7434580.822 -23572289.231 -6329828.123 10 0 58265 54000.00000 0 -7105535.521 -22657128.503 -9335429.220 10 0 58265 54900.00000 0 -6530022.861 -21458508.057 -12159811.880 10 0 58265 55800.00000 0 -5682925.615 -20028622.679 -14748152.735 10 0 58265 56700.00000 0 -4550494.369 -18425718.426 -17050209.904 10 0 58265 57600.00000 0 -3131191.176 -16711660.885 -19021296.327 10 0 58265 58500.00000 0 -1436020.622 -14949371.954 -20623145.046 10 0 58265 59400.00000 0 511666.789 -13200242.354 -21824650.024 10 0 58265 60300.00000 0 2676892.056 -11521627.776 -22602468.561 10 0 58265 61200.00000 0 5014257.254 -9964533.019 -22941473.932 10 0 58265 62100.00000 0 7469598.210 -8571580.309 -22835049.772 10 0 58265 63000.00000 0 9982012.813 -7375346.122 -22285220.629 10 0 58265 63900.00000 0 12486181.698 -6397135.438 -21302616.041 10 0 58265 64800.00000 0 14914885.894 -5646244.035 -19906268.588 10 0 58265 65700.00000 0 17201617.600 -5119739.111 -18123249.326 10 0 58265 66600.00000 0 19283176.005 -4802766.919 -15988147.141 10 0 58265 67500.00000 0 21102140.527 -4669373.948 -13542401.458 10 0 58265 68400.00000 0 22609118.543 -4683806.649 -10833500.675 10 0 58265 69300.00000 0 23764673.782 -4802234.472 -7914061.456 10 0 58265 70200.00000 0 24540854.707 -4974822.999 -4840806.514 10 0 58265 71100.00000 0 24922258.817 -5148068.958 -1673460.662 10 0 58265 72000.00000 0 24906588.141 -5267297.730 1526413.071 10 0 58265 72900.00000 0 24504672.655 -5279216.817 4696614.241 10 0 58265 73800.00000 0 23739960.785 -5134416.266 7775518.799 10 0 58265 74700.00000 0 22647498.684 -4789709.278 10703281.523 10 0 58265 75600.00000 0 21272441.611 -4210212.922 13423003.144 10 0 58265 76500.00000 0 19668160.414 -3371079.950 15881838.932 10 0 58265 77400.00000 0 17894023.202 -2258807.625 18032026.812 10 0 58265 78300.00000 0 16012945.695 -872067.351 19831814.956 10 0 58265 79200.00000 0 14088813.286 777980.762 21246270.969 10 0 58265 80100.00000 0 12183882.910 2667902.525 22247957.258 10 0 58265 81000.00000 0 10356273.329 4762725.404 22817459.946 10 0 58265 81900.00000 0 8657648.310 7017165.499 22943761.654 10 0 58265 82800.00000 0 7131188.945 9377295.314 22624451.400 10 0 58265 83700.00000 0 5809938.891 11782583.607 21865768.006 10 0 58265 84600.00000 0 4715590.597 14168223.146 20682476.464 10 0 58265 85500.00000 0 3857762.150 16467650.073 19097579.776 10 0 58266 0.00000 0 3233793.679 18615150.700 17141871.872 10 0 58266 900.00000 0 2829070.770 20548447.704 14853339.754 10 0 58266 1800.00000 0 2617859.818 22211158.715 12276426.988 10 0 58266 2700.00000 0 2564619.857 23555024.390 9461171.537 10 0 58266 3600.00000 0 2625733.900 24541814.500 6462235.130 10 0 58266 4500.00000 0 2751586.675 25144831.600 3337842.596 10 0 58266 5400.00000 0 2888900.077 25349950.189 148651.748 10 0 58266 6300.00000 0 2983227.149 25156147.932 -3043424.210 10 0 58266 7200.00000 0 2981498.649 24575506.918 -6176418.644 10 0 58266 8100.00000 0 2834513.963 23632685.161 -9189514.306 10 0 58266 9000.00000 0 2499270.539 22363880.701 -12024223.493 10 0 58266 9900.00000 0 1941032.802 20815331.933 -14625522.420 10 0 58266 10800.00000 0 1135052.563 19041417.135 -16942917.790 10 0 58266 11700.00000 0 67867.541 17102432.797 -18931425.034 10 0 58266 12600.00000 0 -1261877.532 15062143.689 -20552439.360 10 0 58266 13500.00000 0 -2843122.833 12985206.855 -21774483.136 10 0 58266 14400.00000 0 -4652612.521 10934576.792 -22573815.474 10 0 58266 15300.00000 0 -6655633.073 8968999.671 -22934892.543 10 0 58266 16200.00000 0 -8807241.367 7140700.551 -22850669.981 10 0 58266 17100.00000 0 -11053932.672 5493359.304 -22322741.659 10 0 58266 18000.00000 0 -13335680.197 4060459.050 -21361312.054 10 0 58266 18900.00000 0 -15588262.382 2864075.182 -19985002.492 10 0 58266 19800.00000 0 -17745781.986 1914154.833 -18220494.546 10 0 58266 20700.00000 0 -19743272.584 1208316.199 -16102016.970 10 0 58266 21600.00000 0 -21519284.331 732175.353 -13670685.476 10 0 58266 22500.00000 0 -23018341.244 460186.166 -10973707.547 10 0 58266 23400.00000 0 -24193167.248 356957.299 -8063467.299 10 0 58266 24300.00000 0 -25006587.693 378990.077 -4996507.900 10 0 58266 25200.00000 0 -25433026.371 476763.148 -1832431.223 10 0 58266 26100.00000 0 -25459534.903 597075.055 1367263.573 10 0 58266 27000.00000 0 -25086311.011 685544.759 4540379.549 10 0 58266 27900.00000 0 -24326683.733 689163.332 7625235.704 10 0 58266 28800.00000 0 -23206566.139 558787.855 10561870.552 10 0 58266 29700.00000 0 -21763398.663 251470.975 13293211.541 10 0 58266 30600.00000 0 -20044627.606 -267473.418 15766187.099 10 0 58266 31500.00000 0 -18105783.000 -1022756.599 17932759.233 10 0 58266 32400.00000 0 -16008236.677 -2027826.744 19750856.596 10 0 58266 33300.00000 0 -13816734.634 -3284061.171 21185189.979 10 0 58266 34200.00000 0 -11596807.058 -4780473.858 22207934.692 10 0 58266 35100.00000 0 -9412164.067 -6493951.379 22799267.074 10 0 58266 36000.00000 0 -7322185.515 -8390008.170 22947745.284 10 0 58266 36900.00000 0 -5379609.022 -10424030.302 22650527.452 10 0 58266 37800.00000 0 -3628511.769 -12542956.542 21913423.466 10 0 58266 38700.00000 0 -2102669.120 -14687327.336 20750779.620 10 0 58266 39600.00000 0 -824357.428 -16793616.819 19185198.548 10 0 58266 40500.00000 0 196350.360 -18796751.258 17247099.786 10 0 58266 41400.00000 0 961768.237 -20632709.424 14974129.335 10 0 58266 42300.00000 0 1486253.388 -22241096.723 12410429.407 10 0 58266 43200.00000 0 1795350.927 -23567585.960 9605782.266 10 0 58266 44100.00000 0 1924464.205 -24566122.946 6614644.469 10 0 58266 45000.00000 0 1917107.682 -25200804.752 3495090.155 10 0 58266 45900.00000 0 1822816.936 -25447352.094 307683.848 10 0 58266 46800.00000 0 1694804.816 -25294114.102 -2885695.356 10 0 58266 47700.00000 0 1587463.405 -24742563.389 -6023055.106 10 0 58266 48600.00000 0 1553817.996 -23807260.584 -9043493.144 10 0 58266 49500.00000 0 1643041.281 -22515289.800 -11888379.142 10 0 58266 50400.00000 0 1898133.308 -20905188.625 -14502491.856 10 0 58266 51300.00000 0 2353865.776 -19025417.400 -16835089.544 10 0 58266 52200.00000 0 3035078.044 -16932431.640 -18840893.011 10 0 58266 53100.00000 0 3955397.325 -14688438.045 -20480962.335 10 0 58266 54000.00000 0 5116437.814 -12358927.453 -21723450.709 10 0 58266 54900.00000 0 6507513.349 -10010087.208 -22544221.129 10 0 58266 55800.00000 0 8105876.744 -7706200.321 -22927314.312 10 0 58266 56700.00000 0 9877477.015 -5507139.065 -22865259.114 10 0 58266 57600.00000 0 11778204.068 -3466056.610 -22359219.501 10 0 58266 58500.00000 0 13755570.088 -1627372.093 -21418975.215 10 0 58266 59400.00000 0 15750758.554 -25132.186 -20062736.216 10 0 58266 60300.00000 0 17700956.409 1318183.400 -18316794.045 10 0 58266 61200.00000 0 19541872.702 2392363.382 -16215016.327 10 0 58266 62100.00000 0 21210339.044 3199644.885 -13798193.595 10 0 58266 63000.00000 0 22646883.443 3754365.253 -11113250.455 10 0 58266 63900.00000 0 23798169.704 4082101.075 -8212336.053 10 0 58266 64800.00000 0 24619200.019 4218331.528 -5151811.152 10 0 58266 65700.00000 0 25075187.939 4206683.211 -1991151.456 10 0 58266 66600.00000 0 25143022.591 4096831.444 1208211.224 10 0 58266 67500.00000 0 24812262.118 3942147.652 4384087.077 10 0 58266 68400.00000 0 24085614.106 3797193.330 7474741.788 10 0 58266 69300.00000 0 22978882.449 3715167.584 10420101.125 10 0 58266 70200.00000 0 21520382.632 3745417.259 13162922.577 10 0 58266 71100.00000 0 19749849.867 3931115.914 15649910.763 10 0 58266 72000.00000 0 17716885.917 4307210.613 17832754.495 10 0 58266 72900.00000 0 15479009.744 4898724.084 19669065.265 10 0 58266 73800.00000 0 13099393.575 5719484.563 21123199.029 10 0 58266 74700.00000 0 10644379.068 6771337.500 22166945.578 10 0 58266 75600.00000 0 8180877.050 8043872.941 22780072.624 10 0 58266 76500.00000 0 5773758.886 9514680.657 22950714.555 10 0 58266 77400.00000 0 3483347.669 11150122.952 22675598.846 10 0 58266 78300.00000 0 1363112.855 12906593.410 21960106.161 10 0 58266 79200.00000 0 -542336.650 14732209.601 20818163.323 10 0 58266 80100.00000 0 -2198878.522 16568869.512 19271971.323 10 0 58266 81000.00000 0 -3584055.696 18354586.347 17351573.664 10 0 58266 81900.00000 0 -4687759.941 20026004.604 15094273.164 10 0 58266 82800.00000 0 -5512393.106 21520992.559 12543908.351 10 0 58266 83700.00000 0 -6072500.733 22781202.995 9750003.174 10 0 58266 84600.00000 0 -6393894.725 23754495.129 6766806.230 10 0 58266 85500.00000 0 -6512303.109 24397116.256 3652238.085 10 0 58267 0.00000 0 -6471604.861 24675551.641 466767.089 10 0 58267 900.00000 0 -6321725.242 24567964.558 -2727764.854 10 0 58267 1800.00000 0 -6116280.921 24065166.856 -5869342.518 10 0 58267 2700.00000 0 -5910075.715 23171077.279 -8896981.420 10 0 58267 3600.00000 0 -5756552.607 21902649.955 -11751911.226 10 0 58267 4500.00000 0 -5705310.736 20289274.406 -14378715.634 10 0 58267 5400.00000 0 -5799792.444 18371672.491 -16726406.612 10 0 58267 6300.00000 0 -6075238.566 16200337.840 -18749412.218 10 0 58267 7200.00000 0 -6556998.625 13833582.685 -20408459.029 10 0 58267 8100.00000 0 -7259267.689 11335273.074 -21671332.429 10 0 58267 9000.00000 0 -8184303.722 8772346.299 -22513500.393 10 0 58267 9900.00000 0 -9322159.073 6212213.334 -22918589.015 10 0 58267 10800.00000 0 -10650938.343 3720153.610 -22878700.870 10 0 58267 11700.00000 0 -12137572.843 1356809.646 -22394570.186 10 0 58267 12600.00000 0 -13739080.285 -824115.034 -21475551.738 10 0 58267 13500.00000 0 -15404258.063 -2777859.855 -20139443.480 10 0 58267 14400.00000 0 -17075740.269 -4470230.475 -18412145.862 10 0 58267 15300.00000 0 -18692333.151 -5878774.575 -16327163.940 10 0 58267 16200.00000 0 -20191531.846 -6993461.943 -13924961.279 10 0 58267 17100.00000 0 -21512113.306 -7816841.327 -11252177.559 10 0 58267 18000.00000 0 -22596696.700 -8363668.258 -8360724.682 10 0 58267 18900.00000 0 -23394163.659 -8660020.423 -5306778.584 10 0 58267 19800.00000 0 -23861836.261 -8741938.687 -2149686.258 10 0 58267 20700.00000 0 -23967320.577 -8653651.981 1049190.476 10 0 58267 21600.00000 0 -23689937.587 -8445461.942 4227671.643 10 0 58267 22500.00000 0 -23021680.527 -8171377.726 7323972.397 10 0 58267 23400.00000 0 -21967657.785 -7886601.940 10277908.570 10 0 58267 24300.00000 0 -20546002.163 -7644975.037 13032070.477 10 0 58267 25200.00000 0 -18787249.865 -7496487.132 15532941.633 10 0 58267 26100.00000 0 -16733215.009 -7484963.224 17731940.176 10 0 58267 27000.00000 0 -14435406.589 -7646020.303 19586362.700 10 0 58267 27900.00000 0 -11953053.920 -8005383.132 21060212.250 10 0 58267 28800.00000 0 -9350822.942 -8577630.171 22124894.632 10 0 58267 29700.00000 0 -6696318.379 -9365422.859 22759770.033 10 0 58267 30600.00000 0 -4057475.366 -10359251.070 22952549.756 10 0 58267 31500.00000 0 -1499948.714 -11537705.760 22699530.876 10 0 58267 32400.00000 0 915392.434 -12868267.813 22005664.725 10 0 58267 33300.00000 0 3134761.253 -14308580.431 20884458.191 10 0 58267 34200.00000 0 5113446.690 -15808152.175 19357709.862 10 0 58267 35100.00000 0 6817422.009 -17310419.761 17455086.133 10 0 58267 36000.00000 0 8224502.743 -18755084.604 15213545.294 10 0 58267 36900.00000 0 9325007.036 -20080625.510 12676620.560 10 0 58267 37800.00000 0 10121892.230 -21226882.404 9893575.655 10 0 58267 38700.00000 0 10630363.326 -22137602.862 6918449.067 10 0 58267 39600.00000 0 10876971.009 -22762844.494 3809005.408 10 0 58267 40500.00000 0 10898238.365 -23061132.187 625614.176 10 0 58267 41400.00000 0 10738875.167 -23001279.317 -2569922.317 10 0 58267 42300.00000 0 10449655.905 -22563796.034 -5715568.823 10 0 58267 43200.00000 0 10085051.895 -21741825.058 -8750261.395 10 0 58267 44100.00000 0 9700718.077 -20541565.148 -11615092.430 10 0 58267 45000.00000 0 9350941.124 -18982163.985 -14254453.266 10 0 58267 45900.00000 0 9086157.012 -17095084.360 -16617112.178 10 0 58267 46800.00000 0 8950643.167 -14922969.590 -18657206.934 10 0 58267 47700.00000 0 8980482.777 -12518054.949 -20335132.857 10 0 58267 48600.00000 0 9201887.368 -9940190.753 -21618309.483 10 0 58267 49500.00000 0 9629948.601 -7254558.679 -22481811.403 10 0 58267 50400.00000 0 10267872.234 -4529175.691 -22908851.341 10 0 58267 51300.00000 0 11106726.998 -1832288.474 -22891106.463 10 0 58267 52200.00000 0 12125719.634 770234.237 -22428881.717 10 0 58267 53100.00000 0 13292985.344 3217403.877 -21531106.993 10 0 58267 54000.00000 0 14566861.350 5455405.826 -20215167.940 10 0 58267 54900.00000 0 15897591.025 7439590.189 -18506573.259 10 0 58267 55800.00000 0 17229387.844 9136077.528 -16438464.396 10 0 58267 56700.00000 0 18502773.189 10522913.461 -14050976.527 10 0 58267 57600.00000 0 19657090.232 11590724.734 -11390462.595 10 0 58267 58500.00000 0 20633088.374 12342850.070 -8508595.052 10 0 58267 59400.00000 0 21375469.456 12794941.202 -5461362.430 10 0 58267 60300.00000 0 21835288.181 12974051.690 -2307980.127 10 0 58267 61200.00000 0 21972105.071 12917252.793 890263.162 10 0 58267 62100.00000 0 21755800.525 12669835.672 4071200.578 10 0 58267 63000.00000 0 21167972.719 12283176.836 7173000.050 10 0 58267 63900.00000 0 20202859.628 11812357.911 10135370.728 10 0 58267 64800.00000 0 18867745.584 11313641.316 12900738.871 10 0 58267 65700.00000 0 17182834.506 10841909.383 15415369.786 10 0 58267 66600.00000 0 15180594.586 10448175.881 17630413.595 10 0 58267 67500.00000 0 12904601.369 10177275.644 19502854.367 10 0 58267 68400.00000 0 10407927.183 10065830.244 20996344.278 10 0 58267 69300.00000 0 7751143.904 10140575.786 22081906.847 10 0 58267 70200.00000 0 5000021.926 10417123.433 22738496.033 10 0 58267 71100.00000 0 2223020.679 10899204.921 22953400.909 10 0 58267 72000.00000 0 -511325.365 11578434.852 22722488.514 10 0 58267 72900.00000 0 -3137017.280 12434599.826 22050280.691 10 0 58267 73800.00000 0 -5593091.250 13436462.390 20949863.689 10 0 58267 74700.00000 0 -7825904.106 14543046.218 19442632.450 10 0 58267 75600.00000 0 -9791110.969 15705348.800 17557874.523 10 0 58267 76500.00000 0 -11455253.886 16868409.967 15332201.501 10 0 58267 77400.00000 0 -12796896.450 17973649.635 12808838.777 10 0 58267 78300.00000 0 -13807258.383 18961376.686 10036787.113 10 0 58267 79200.00000 0 -14490324.830 19773363.654 7069871.999 10 0 58267 80100.00000 0 -14862427.011 20355378.871 3965699.145 10 0 58267 81000.00000 0 -14951313.038 20659569.394 784536.311 10 0 58267 81900.00000 0 -14794749.048 20646594.113 -2411856.828 10 0 58267 82800.00000 0 -14438710.512 20287416.876 -5561427.773 10 0 58267 83700.00000 0 -13935240.765 19564683.634 -8603035.831 10 0 58267 84600.00000 0 -13340067.790 18473625.085 -11477638.698 10 0 58267 85500.00000 0 -12710080.293 17022446.221 -14129437.711 10 0 58268 0.00000 0 -12100769.924 15232185.722 -16506959.524 10 0 58268 900.00000 0 -11563748.018 13136049.851 -18564053.555 10 0 58268 1800.00000 0 -11144440.822 10778248.972 -20260785.389 10 0 58268 2700.00000 0 -10880061.958 8212382.771 -21564209.979 10 0 58268 3600.00000 0 -10797945.747 5499441.943 -22449009.503 10 0 58268 4500.00000 0 -10914312.882 2705507.859 -22897983.983 10 0 58268 5400.00000 0 -11233519.930 -100754.852 -22902385.526 10 0 58268 6300.00000 0 -11747824.659 -2850709.728 -22462089.817 10 0 58268 7200.00000 0 -12437677.408 -5478356.282 -21585601.521 10 0 58268 8100.00000 0 -13272526.797 -7922826.856 -20289893.274 10 0 58268 9000.00000 0 -14212106.501 -10130669.685 -18600080.944 10 0 58268 9900.00000 0 -15208149.587 -12057823.886 -16548940.951 10 0 58268 10800.00000 0 -16206458.876 -13671204.984 -14176278.356 10 0 58268 11700.00000 0 -17149246.586 -14949835.512 -11528157.386 10 0 58268 12600.00000 0 -17977644.928 -15885474.096 -8656008.882 10 0 58268 13500.00000 0 -18634281.799 -16482717.425 -5615631.660 10 0 58268 14400.00000 0 -19065812.677 -16758571.571 -2466107.099 10 0 58268 15300.00000 0 -19225301.345 -16741511.435 731351.738 10 0 58268 16200.00000 0 -19074348.260 -16470068.813 3914593.704 10 0 58268 17100.00000 0 -18584875.867 -15991009.498 7021742.169 10 0 58268 18000.00000 0 -17740494.632 -15357177.224 9992402.326 10 0 58268 18900.00000 0 -16537391.257 -14625096.438 12768839.092 10 0 58268 19800.00000 0 -14984700.733 -13852435.909 15297102.247 10 0 58268 20700.00000 0 -13104345.810 -13095441.001 17528076.416 10 0 58268 21600.00000 0 -10930349.803 -12406443.521 19418435.439 10 0 58268 22500.00000 0 -8507650.860 -11831554.505 20931482.621 10 0 58268 23400.00000 0 -5890466.675 -11408637.373 22037860.812 10 0 58268 24300.00000 0 -3140277.286 -11165646.751 22716118.956 10 0 58268 25200.00000 0 -323509.407 -11119402.729 22953124.675 10 0 58268 26100.00000 0 2490981.964 -11274851.850 22744315.348 10 0 58268 27000.00000 0 5234530.667 -11624845.621 22093783.298 10 0 58268 27900.00000 0 7841267.355 -12150445.596 21014193.738 10 0 58268 28800.00000 0 10250610.756 -12821742.028 19526537.229 10 0 58268 29700.00000 0 12409539.711 -13599151.576 17659721.419 10 0 58268 30600.00000 0 14274552.547 -14435139.455 15450009.826 10 0 58268 31500.00000 0 15813233.194 -15276293.629 12940318.326 10 0 58268 32400.00000 0 17005359.930 -16065663.766 10179382.693 10 0 58268 33300.00000 0 17843511.566 -16745266.463 7220813.090 10 0 58268 34200.00000 0 18333146.785 -17258651.131 4122053.719 10 0 58268 35100.00000 0 18492154.450 -17553418.209 943267.766 10 0 58268 36000.00000 0 18349894.770 -17583583.257 -2253830.696 10 0 58268 36900.00000 0 17945772.584 -17311686.867 -5407174.943 10 0 58268 37800.00000 0 17327403.630 -16710560.893 -8455550.521 10 0 58268 38700.00000 0 16548451.759 -15764675.979 -11339783.300 10 0 58268 39600.00000 0 15666228.726 -14471012.891 -14003887.343 10 0 58268 40500.00000 0 14739158.128 -12839420.198 -16396150.292 10 0 58268 41400.00000 0 13824210.488 -10892442.278 -18470135.338 10 0 58268 42300.00000 0 12974417.626 -8664623.905 -20185580.423 10 0 58268 43200.00000 0 12236570.822 -6201319.352 -21509177.661 10 0 58268 44100.00000 0 11649199.471 -3557054.587 -22415218.198 10 0 58268 45000.00000 0 11240915.008 -793509.695 -22886090.377 10 0 58268 45900.00000 0 11029189.546 2022795.679 -22912621.889 10 0 58268 46800.00000 0 11019620.393 4823018.811 -22494259.415 10 0 58268 47700.00000 0 11205711.358 7538608.761 -21639082.276 10 0 58268 48600.00000 0 11569180.135 10103912.001 -20363649.617 10 0 58268 49500.00000 0 12080779.041 12458661.503 -18692683.649 10 0 58268 50400.00000 0 12701594.862 14550246.445 -16658594.581 10 0 58268 51300.00000 0 13384773.390 16335668.800 -14300855.836 10 0 58268 52200.00000 0 14077596.235 17783105.846 -11665241.050 10 0 58268 53100.00000 0 14723822.450 18873013.803 -8802937.221 10 0 58268 54000.00000 0 15266196.115 19598727.036 -5769550.895 10 0 58268 54900.00000 0 15649013.697 19966528.225 -2624026.587 10 0 58268 55800.00000 0 15820642.240 19995187.161 572501.334 10 0 58268 56700.00000 0 15735881.278 19714988.277 3757900.627 10 0 58268 57600.00000 0 15358067.789 19166288.596 6870253.339 10 0 58268 58500.00000 0 14660834.320 18397667.686 9849063.871 10 0 58268 59400.00000 0 13629445.057 17463748.457 12636438.846 10 0 58268 60300.00000 0 12261652.425 16422781.479 15178215.347 10 0 58268 61200.00000 0 10568037.222 15334095.377 17425015.106 10 0 58268 62100.00000 0 8571817.000 14255521.314 19333204.048 10 0 58268 63000.00000 0 6308129.835 13240900.363 20865738.617 10 0 58268 63900.00000 0 3822822.708 12337778.832 21992882.638 10 0 58268 64800.00000 0 1170794.331 11585388.362 22692781.297 10 0 58268 65700.00000 0 -1586039.276 11012995.380 22951881.573 10 0 58268 66600.00000 0 -4381072.363 10638688.792 22765191.493 10 0 58268 67500.00000 0 -7145534.200 10468656.276 22136373.634 10 0 58268 68400.00000 0 -9811106.861 10496978.933 21077671.388 10 0 58268 69300.00000 0 -12312528.022 10705952.380 19609669.581 10 0 58268 70200.00000 0 -14590071.500 11066920.275 17760894.079 10 0 58268 71100.00000 0 -16591803.307 11541584.807 15567257.979 10 0 58268 72000.00000 0 -18275520.139 12083738.713 13071364.925 10 0 58268 72900.00000 0 -19610290.480 12641345.627 10321682.739 10 0 58268 73800.00000 0 -20577534.925 13158880.896 7371603.139 10 0 58268 74700.00000 0 -21171601.439 13579833.940 4278405.672 10 0 58268 75600.00000 0 -21399812.394 13849266.308 1102145.852 10 0 58268 76500.00000 0 -21281982.293 13916317.137 -2095510.857 10 0 58268 77400.00000 0 -20849427.227 13736549.825 -5252486.372 10 0 58268 78300.00000 0 -20143508.478 13274040.346 -8307495.196 10 0 58268 79200.00000 0 -19213772.167 12503118.455 -11201233.910 10 0 58268 80100.00000 0 -18115763.766 11409687.655 -13877531.615 10 0 58268 81000.00000 0 -16908609.809 9992067.495 -16284438.961 10 0 58268 81900.00000 0 -15652468.738 8261321.738 -18375234.740 10 0 58268 82800.00000 0 -14405958.141 6241057.620 -20109330.641 10 0 58268 83700.00000 0 -13223666.360 3966703.365 -21453056.978 10 0 58268 84600.00000 0 -12153852.719 1484292.862 -22380314.547 10 0 58268 85500.00000 0 -11236432.576 -1151192.986 -22873080.324 99